Location: Beneden-Haastrecht
(52.0012°N, 4.7557°E)
Time: 10:32:30
(UTC+00:00)

X-37B - Pass Details

Date: 30 January 2021
Orbit: 383 x 391 km, 45.0° (Epoch: 10 February)

Event Time Altitude Azimuth Distance (km) Brightness Sun altitude
Rises 17:23:56 0° 261° (W) 2,272 6.7 -9.1°
Reaches altitude 10° 17:26:31 10° 239° (WSW) 1,417 4.9 -9.5°
Maximum altitude 17:28:35 16° 198° (SSW) 1,106 3.3 -9.8°
Drops below altitude 10° 17:30:40 10° 157° (SSE) 1,417 3.4 -10.1°
Enters shadow 17:33:12 - 135° (SE) 2,249 4.2 -10.5°
